GFSCGP_500_spd_336.txt.gz
Wind_Speed
24 22 20 19 18 18 20 23 14 10 12 16 19 24 29 30 24 23 17 7 7 13 17 18 20 20 21 21 21 20 21 21 22 23 25 27 30 32 35 36 38 39 39 39
18 18 21 24 22 21 23 23 13 6 6 8 20 24 25 30 33 30 19 12 6 11 19 22 20 20 22 21 21 22 23 25 27 28 30 32 35 38 39 40 41 41 41 40
16 23 26 28 26 24 27 27 21 17 10 11 16 22 25 29 37 30 20 19 13 7 15 24 17 19 22 23 24 25 28 30 32 33 35 37 38 40 40 40 40 41 42 42
20 21 24 26 26 27 31 32 30 24 21 25 24 28 30 31 35 30 26 21 19 13 13 19 15 29 34 29 28 29 32 34 36 37 37 38 39 39 39 40 41 41 42 43
20 22 24 23 16 14 24 34 32 34 29 29 32 30 23 20 28 28 26 25 25 19 20 20 31 31 28 27 31 34 33 35 36 36 37 38 39 39 40 40 41 42 43 44
16 19 23 19 16 19 20 22 26 31 41 37 30 24 21 18 21 27 31 27 25 22 25 26 30 30 27 27 30 34 33 32 33 34 36 37 38 38 39 40 42 43 44 45
19 18 18 12 7 14 15 20 23 25 25 24 20 26 30 22 23 26 31 29 26 27 30 34 33 33 32 34 35 33 32 32 33 34 35 36 38 38 39 40 41 43 44 44
22 21 18 17 15 14 14 17 18 23 24 24 25 32 34 30 26 28 27 24 22 32 36 34 37 39 35 40 41 35 35 35 36 36 37 37 38 39 39 41 42 42 39 41
22 22 26 26 21 20 20 21 22 26 27 27 27 33 34 27 22 22 22 27 32 39 36 41 43 36 39 43 43 38 36 37 38 39 39 38 37 34 36 39 41 39 41 46
23 26 22 25 23 23 26 24 24 24 26 26 26 27 33 33 32 30 28 31 37 42 39 40 42 43 43 43 41 36 37 38 36 35 37 38 36 33 37 41 41 44 48 47
24 28 22 27 28 27 27 28 24 27 31 33 36 29 30 35 39 39 42 40 42 47 49 46 45 46 39 37 34 35 37 32 36 36 36 38 36 40 46 47 51 49 49 50
25 26 24 29 30 30 34 33 31 29 27 28 31 35 26 31 32 38 42 44 45 48 50 49 44 43 31 30 28 32 31 33 36 37 42 41 36 45 49 52 49 47 47 49
28 30 27 28 36 39 40 39 37 36 32 30 29 26 21 25 28 31 38 43 45 44 41 40 38 36 37 32 29 32 34 35 37 39 40 41 33 43 49 46 48 50 51 52
33 34 33 28 23 34 43 42 40 39 39 36 36 32 30 26 29 32 38 41 45 46 44 43 42 39 34 33 35 36 38 38 39 42 43 38 43 51 48 51 51 51 51 50
40 38 38 37 32 30 35 39 43 45 43 39 38 35 31 29 30 33 34 37 43 46 49 48 47 38 35 35 37 38 38 40 41 42 42 44 45 51 52 52 53 53 52 52
45 46 45 44 44 41 35 37 41 40 41 40 39 41 42 40 37 38 40 41 43 46 44 46 48 39 36 38 40 41 41 42 42 40 41 44 49 48 51 52 53 52 52 53
52 48 49 48 48 48 48 45 41 40 38 40 44 44 48 50 46 41 43 46 49 50 51 51 50 45 41 43 42 42 43 44 47 48 48 46 47 49 49 51 51 51 52 52
47 48 48 47 47 53 50 49 47 41 37 37 40 46 50 51 53 53 51 52 52 55 52 55 54 48 44 44 44 46 47 47 48 46 45 45 47 47 48 49 49 51 50 49
41 42 46 50 52 53 55 52 50 44 41 37 38 42 47 51 52 54 55 54 53 52 51 51 47 44 48 48 48 49 47 45 43 42 42 44 45 46 47 47 48 48 47 45
43 44 46 51 56 59 55 54 47 48 50 40 39 40 44 49 52 52 51 52 52 46 45 44 40 41 49 49 48 48 46 42 40 40 42 42 43 44 45 46 46 44 42 38
46 47 50 54 59 56 55 54 54 52 40 42 40 41 46 50 51 54 53 51 49 45 44 43 42 45 46 44 45 44 42 40 39 40 42 43 43 44 44 44 42 39 36 34
49 49 50 49 52 54 53 52 53 50 50 48 43 40 43 48 44 45 43 43 43 44 44 42 42 42 38 39 41 39 38 38 38 39 41 41 43 43 42 40 36 34 34 35
52 48 47 49 48 52 56 59 55 54 49 45 44 43 38 39 39 36 36 39 40 39 40 38 38 38 36 39 38 36 34 35 38 40 40 40 41 40 37 32 31 32 33 36
51 51 50 48 49 52 53 55 54 54 51 50 47 46 47 44 42 42 49 52 45 36 35 36 36 37 37 37 36 34 35 38 38 37 39 39 38 35 30 28 29 32 34 35
52 50 51 50 49 47 47 50 48 47 50 52 52 51 57 44 39 49 45 32 50 44 35 36 35 36 35 34 34 36 39 40 39 37 36 36 33 29 26 27 28 30 33 33
55 52 50 50 53 55 53 50 48 46 45 47 43 36 40 37 39 33 33 44 36 29 29 33 33 33 34 33 37 41 42 38 38 36 34 30 27 24 25 27 30 31 32 32

GFSCGP_500_spd_339.txt.gz
Wind_Speed
25 27 27 26 24 26 26 23 27 21 20 23 20 13 11 14 18 21 18 18 11 13 17 20 22 21 20 21 21 19 17 19 21 22 24 27 30 32 34 36 36 37 37 37
25 23 25 26 28 30 30 26 29 28 28 28 21 13 11 18 21 23 21 17 3 7 14 17 20 13 20 28 25 22 23 24 26 27 29 32 35 36 38 38 39 38 39 39
25 29 31 31 31 32 29 31 31 30 27 27 23 17 16 17 18 23 20 16 4 2 11 17 17 13 22 25 23 24 26 29 30 31 33 35 36 38 38 38 38 39 40 40
28 30 32 35 35 34 34 33 31 31 25 22 22 21 22 22 22 24 20 19 12 4 5 14 21 19 24 28 26 25 28 31 33 33 34 34 35 37 37 38 38 39 40 42
24 24 29 29 29 32 27 33 34 34 31 29 28 28 27 30 27 27 24 23 20 11 6 9 18 22 25 29 27 24 27 32 33 34 33 33 34 35 37 38 39 40 42 43
24 22 23 25 27 31 28 33 38 38 37 37 31 35 31 29 29 33 31 28 25 21 12 12 18 24 29 33 31 30 33 36 34 35 35 36 37 38 39 40 42 43 41 40
24 20 18 21 26 22 21 21 29 36 38 38 39 42 40 29 31 30 29 33 28 26 22 18 21 27 33 34 34 36 38 38 38 37 35 36 38 40 41 43 43 41 38 36
26 23 21 24 25 24 22 19 22 23 26 26 30 45 50 45 38 29 31 32 31 23 21 18 27 32 35 37 33 40 43 43 40 36 36 37 38 38 39 42 42 38 35 40
24 20 25 29 27 28 24 23 22 23 24 26 26 29 33 37 36 31 32 33 31 32 23 25 33 23 33 32 37 42 41 39 33 34 36 36 36 38 39 40 40 41 43 47
23 24 24 30 30 27 27 26 26 25 26 26 26 25 26 26 27 31 31 29 30 32 30 33 37 36 37 37 41 41 39 38 35 35 35 35 35 35 40 40 38 39 43 47
26 28 24 30 33 33 30 29 28 28 29 27 28 27 23 27 31 31 31 31 34 35 37 38 35 37 41 39 40 38 39 43 41 40 40 38 38 38 41 41 40 41 47 50
29 30 26 31 32 36 31 30 32 33 31 29 30 27 22 23 26 28 28 30 32 35 37 40 43 44 42 39 37 35 34 35 40 37 39 40 40 40 42 41 45 46 49 52
30 32 30 25 32 35 37 34 33 35 35 34 34 28 25 25 26 28 30 32 33 35 37 37 35 33 33 34 37 35 33 35 38 39 40 43 38 44 43 40 43 49 53 49
34 34 33 29 26 30 38 37 37 39 40 36 33 30 30 27 25 29 31 30 32 34 35 34 30 34 34 35 37 37 36 34 36 39 40 40 40 40 41 39 42 55 51 53
40 38 37 37 34 32 37 41 44 46 46 44 39 34 33 31 32 33 35 35 36 38 40 38 35 38 39 40 43 42 41 38 38 41 42 45 37 41 48 50 50 51 52 54
48 46 44 43 43 40 37 40 40 40 45 46 43 42 40 43 42 39 38 40 40 42 41 42 43 46 45 49 50 48 46 40 41 43 45 46 44 52 53 50 50 53 54 54
53 52 49 47 49 50 51 44 42 43 43 43 45 44 46 47 46 44 43 43 41 40 43 45 50 48 49 50 51 48 46 43 44 47 47 47 51 51 51 50 51 52 52 52
49 53 55 54 54 56 54 54 52 50 49 49 48 46 47 47 48 48 45 45 47 47 50 51 50 52 51 51 47 44 44 46 47 50 52 51 50 49 49 50 51 51 50 51
47 50 53 56 57 57 57 55 52 52 50 48 46 44 45 47 48 47 44 45 46 48 49 50 53 52 52 49 49 49 47 50 50 49 51 49 48 48 48 49 50 49 49 51
48 49 50 56 58 61 57 53 52 55 58 48 45 45 45 48 50 52 53 50 48 47 46 48 49 50 50 49 49 47 49 48 49 49 48 47 47 47 49 50 48 49 48 47
47 48 50 53 58 63 60 59 57 59 54 53 50 45 46 46 46 46 48 47 48 48 48 49 45 47 46 47 48 47 45 45 44 44 45 46 45 46 47 48 47 47 45 41
51 51 53 54 58 61 57 57 58 57 57 55 52 49 45 43 42 44 43 40 40 42 44 41 39 44 47 43 40 44 41 41 42 42 45 44 44 47 45 45 45 44 39 34
59 56 54 56 56 56 56 54 53 53 54 55 55 53 49 43 37 36 39 41 43 40 34 40 43 40 38 38 41 43 37 39 38 41 42 42 45 45 43 43 42 39 33 32
56 54 55 54 54 55 54 53 53 54 53 52 51 48 45 44 44 43 39 43 48 41 40 45 42 40 42 40 38 36 40 40 38 40 40 43 43 40 41 41 36 33 32 33
56 55 55 56 56 54 53 53 52 52 51 51 50 47 45 44 44 43 45 43 42 40 44 39 33 44 42 40 32 35 39 36 37 38 42 42 39 38 38 35 30 30 32 34
54 54 56 58 58 58 56 54 51 51 48 47 45 45 46 47 42 41 39 31 33 34 32 36 30 33 34 34 30 34 36 36 36 40 42 38 36 34 34 30 28 30 32 33

GFSCGP_500_spd_342.txt.gz
Wind_Speed
23 24 24 28 27 25 26 25 27 29 27 29 24 19 16 12 12 8 14 12 15 15 10 5 2 1 4 11 13 15 15 16 18 21 24 27 29 30 32 33 33 34 34 35
25 24 27 30 30 28 27 23 25 26 27 28 25 22 23 16 16 11 15 15 13 13 15 8 5 8 9 14 19 20 20 20 22 24 27 31 32 32 33 33 34 35 36 36
27 28 31 32 32 32 30 28 31 32 31 31 30 29 27 24 19 12 15 13 8 15 12 13 9 11 14 18 21 21 21 18 20 27 30 33 33 34 34 34 35 36 37 37
30 32 36 36 35 34 31 31 32 34 36 36 35 34 25 20 17 15 15 17 14 9 15 14 12 17 16 18 22 23 23 26 26 31 34 33 33 35 36 37 38 39 40 40
30 32 35 33 32 36 32 36 35 35 39 40 36 36 28 23 22 18 21 25 20 15 13 16 19 15 24 20 23 23 25 24 28 34 35 34 33 34 35 37 39 40 41 41
28 28 27 30 34 36 33 34 35 38 40 42 37 38 33 28 27 27 25 24 24 20 20 18 20 25 25 23 28 27 25 24 32 36 38 38 35 34 36 38 40 40 41 40
25 25 23 24 28 31 29 27 32 35 37 37 36 39 35 33 34 34 35 30 29 26 24 21 26 27 28 31 34 33 17 27 37 38 40 36 35 35 37 38 38 39 39 40
26 26 21 25 28 30 29 28 31 31 33 31 34 35 36 36 39 38 37 40 43 34 26 25 28 29 36 33 36 21 27 37 39 40 36 31 32 34 36 38 39 39 38 39
27 24 26 28 30 31 29 29 26 28 27 27 27 29 27 28 30 31 34 36 39 35 29 31 33 33 32 30 40 29 33 43 47 43 37 36 35 35 36 39 38 38 39 40
27 25 28 31 34 33 30 28 28 29 29 30 29 27 24 25 27 28 28 31 31 31 30 30 31 31 29 36 36 36 39 40 43 41 41 37 39 38 39 40 40 39 40 39
27 29 29 32 35 34 31 30 30 30 31 31 30 24 15 21 23 26 28 29 28 29 28 25 26 27 30 31 35 38 34 36 41 43 40 37 36 38 40 42 39 42 39 40
29 30 27 32 34 37 35 33 32 34 33 32 31 28 19 22 23 23 25 26 27 27 28 28 30 33 32 29 29 29 30 29 32 35 36 38 40 40 43 42 43 41 40 45
31 33 30 26 30 35 37 36 34 34 34 34 33 27 20 23 21 22 25 26 26 27 28 29 27 24 23 23 29 31 34 33 34 33 34 35 36 39 40 42 39 42 45 51
35 35 36 34 28 30 34 37 39 36 35 35 34 28 25 25 24 26 26 27 29 30 31 28 31 31 31 29 32 36 39 39 40 39 38 35 36 40 42 42 42 43 49 49
41 43 40 38 35 33 35 35 36 39 40 39 32 32 31 27 29 33 34 32 33 34 35 34 37 38 38 34 37 41 42 44 45 43 41 37 40 43 46 41 45 51 51 50
45 47 47 46 43 41 39 39 40 40 39 38 36 37 31 36 38 37 39 39 38 38 41 40 40 42 38 38 42 45 46 47 44 45 39 39 41 46 46 45 50 51 49 50
46 47 49 50 49 48 49 44 43 45 45 43 43 40 42 39 41 43 44 45 45 44 42 43 42 42 43 43 46 45 49 47 47 41 42 43 45 48 45 46 53 50 49 50
49 47 48 52 49 55 51 49 49 50 49 47 47 50 50 48 47 46 47 46 47 47 47 46 45 44 45 48 48 46 51 48 45 43 45 46 46 45 47 48 49 50 49 51
51 49 50 53 54 55 55 54 50 51 50 50 52 48 48 50 51 50 49 51 52 52 50 49 48 47 45 46 45 47 47 47 48 49 47 46 44 46 47 48 49 49 50 53
53 51 52 55 58 60 56 52 52 55 59 50 47 47 48 48 50 48 50 50 52 50 45 45 44 47 47 45 46 49 47 46 48 48 45 44 41 44 46 47 48 48 51 51
54 55 54 54 58 59 57 56 52 56 54 51 52 51 51 50 49 48 48 49 48 48 46 47 47 46 43 44 46 45 44 45 46 43 37 39 42 42 42 45 46 49 50 47
56 55 54 54 56 60 56 57 56 56 57 55 55 55 55 49 46 41 40 44 48 48 48 47 44 40 40 42 43 45 46 45 39 39 36 38 38 40 42 44 47 48 44 44
58 54 53 53 53 56 58 57 57 58 57 56 55 54 52 49 46 43 40 41 43 45 43 43 43 45 40 38 33 42 42 43 39 34 36 36 38 41 41 45 47 43 41 40
56 55 54 53 54 55 56 58 59 58 57 56 56 56 53 51 48 46 45 45 42 44 44 45 42 42 43 45 45 39 38 41 40 36 36 34 37 39 41 43 43 39 37 34
57 57 56 55 55 57 58 58 58 58 58 59 59 57 55 54 51 47 44 45 42 42 39 38 37 37 39 38 44 39 42 49 37 30 30 34 35 38 39 39 36 35 33 30
58 57 57 56 57 58 55 54 56 57 58 58 58 59 59 57 53 51 46 44 42 40 37 32 32 35 37 38 46 44 42 32 29 29 29 31 36 36 34 32 33 31 29 30

GFSCGP_500_spd_345.txt.gz
Wind_Speed
21 21 21 24 23 25 27 27 26 24 21 24 23 18 21 16 13 12 10 8 9 9 10 9 8 13 12 11 7 6 8 11 11 14 16 18 20 21 23 25 27 28 29 30
22 21 23 27 26 25 27 27 24 24 23 24 25 23 22 21 12 16 20 10 10 11 13 12 13 12 14 13 12 11 11 11 12 13 16 20 23 24 26 27 29 30 31 32
24 25 27 28 28 28 28 26 26 25 25 26 27 28 25 22 16 19 22 14 9 10 15 18 18 17 15 17 19 14 12 13 15 15 19 23 29 30 29 29 30 31 33 33
25 29 30 32 32 31 29 25 28 28 27 30 31 31 27 26 21 20 19 14 13 14 18 19 23 23 23 24 22 19 18 18 17 16 20 25 28 32 30 29 30 31 32 35
25 30 32 32 30 31 30 29 33 31 33 35 35 36 35 33 26 24 22 20 19 18 19 20 22 26 29 29 29 27 26 25 20 18 19 28 30 33 32 29 30 31 34 34
27 30 30 30 32 33 32 31 34 35 37 41 37 40 40 34 31 24 24 23 21 20 20 19 21 28 35 35 35 34 34 27 24 21 24 29 35 33 31 30 31 33 34 36
25 26 24 28 32 33 34 32 35 37 39 39 37 39 38 34 30 30 31 31 31 27 25 26 27 30 33 38 42 37 32 32 28 22 28 36 37 33 32 32 32 33 35 38
27 28 23 24 26 29 30 29 30 31 33 32 35 34 30 26 28 31 33 35 37 36 37 31 29 35 34 35 35 46 42 39 28 37 38 39 33 33 32 34 33 34 35 37
27 27 25 26 27 27 28 28 26 29 29 32 31 26 22 21 20 22 25 28 28 29 31 33 32 32 31 34 35 39 31 36 33 39 36 36 37 35 34 32 34 36 37 39
24 25 28 29 31 32 30 29 30 29 31 31 31 26 20 18 21 22 23 26 28 29 31 30 29 31 35 37 32 31 31 37 32 32 33 34 33 34 34 34 35 36 37 37
21 22 24 31 33 34 35 33 31 32 34 35 34 29 18 18 19 20 23 24 23 23 25 28 29 27 25 21 25 27 31 31 29 28 30 33 33 33 34 35 35 37 39 38
23 24 20 28 34 37 37 36 34 35 33 33 34 31 20 19 22 22 23 22 21 21 22 21 21 20 19 21 25 28 28 30 30 30 32 34 35 36 37 37 38 40 41 40
25 28 26 23 28 32 35 35 35 36 35 35 36 33 25 22 21 20 20 21 21 23 26 25 24 22 23 23 27 29 31 31 33 34 35 35 38 39 41 37 38 41 42 41
34 34 32 30 28 29 33 32 32 35 38 36 35 32 26 20 20 25 28 27 24 25 25 26 27 28 29 31 31 33 36 36 36 37 38 38 40 42 37 36 37 39 42 41
41 41 40 38 34 34 34 35 35 38 37 39 35 34 28 25 30 31 30 31 31 31 30 30 31 33 34 35 37 38 43 42 41 41 40 41 40 40 34 38 40 41 39 42
44 44 44 45 43 42 40 39 40 40 40 40 38 39 30 31 33 34 35 36 36 37 38 38 39 38 38 40 40 42 46 46 45 44 41 42 45 44 37 38 40 38 42 42
48 48 47 48 44 46 51 45 42 41 42 41 42 38 37 37 37 39 39 39 40 41 42 41 40 41 41 43 42 42 47 50 48 45 43 47 44 43 41 41 38 42 41 42
53 51 50 49 48 55 52 49 46 44 44 44 44 44 43 42 42 43 44 43 43 43 43 43 42 42 42 41 41 41 45 50 48 47 47 47 42 48 41 39 38 40 42 41
55 54 55 54 54 54 56 54 49 48 47 44 48 46 45 47 47 48 46 47 47 46 46 44 43 44 42 42 42 43 47 49 50 51 48 45 49 43 40 37 39 41 40 43
57 56 56 58 58 58 55 52 50 53 56 46 43 45 46 48 49 49 45 46 45 45 47 48 47 45 43 42 42 42 44 47 50 48 47 45 45 45 35 37 40 39 40 42
58 58 58 57 59 59 55 53 52 53 52 51 48 47 47 48 48 49 47 48 50 51 51 49 46 44 46 47 45 41 40 39 42 44 47 46 45 43 35 38 38 38 40 42
60 58 59 57 59 59 55 53 54 54 52 51 51 50 49 49 49 48 48 48 48 48 49 48 45 45 46 47 46 44 43 44 44 39 44 50 47 41 39 37 35 37 39 44
62 59 58 58 57 56 56 57 57 54 53 52 50 50 49 49 50 50 47 45 45 44 44 46 44 43 43 45 46 48 46 44 43 45 47 45 40 41 37 33 33 35 40 39
61 57 58 57 55 55 55 55 56 56 55 54 52 51 51 51 51 50 48 45 43 43 42 44 44 43 42 44 46 46 44 40 43 42 40 38 37 41 35 29 31 37 38 36
62 59 56 56 55 55 55 55 56 56 55 54 54 54 53 53 53 52 51 49 47 46 45 46 42 39 39 41 39 38 32 35 34 35 44 47 50 40 29 26 33 35 35 33
61 60 57 57 56 56 52 52 53 55 57 58 57 56 55 54 53 52 52 52 52 51 48 43 39 38 41 40 37 36 36 36 39 36 37 45 37 33 26 30 34 33 29 27